Hourly Weather Dziemierzyce

Today, 8 May, Saturday

Time Temperature Precipitation Wind Pressure Humidity
00:00 +1°C° 0 mm 6 mps 739 mmHg 86%
01:00 +1°C° 0 mm 5 mps 739 mmHg 87%
02:00 +1°C° 0 mm 5 mps 740 mmHg 89%
03:00 0°C° 0 mm 5 mps 740 mmHg 90%
04:00 0°C° 0 mm 5 mps 740 mmHg 91%
05:00 +1°C° 0 mm 5 mps 741 mmHg 86%
06:00 +2°C° 0 mm 6 mps 741 mmHg 81%
07:00 +3°C° 0 mm 6 mps 742 mmHg 76%
08:00 +5°C° 0.1 mm 6 mps 742 mmHg 70%
09:00 +7°C° 0.1 mm 6 mps 742 mmHg 63%
10:00 +8°C° 0.1 mm 6 mps 742 mmHg 57%
11:00 +9°C° 0.1 mm 6 mps 742 mmHg 54%
12:00 +9°C° 0.1 mm 6 mps 742 mmHg 52%
13:00 +10°C° 0.1 mm 6 mps 742 mmHg 49%
14:00 +10°C° 0 mm 5 mps 742 mmHg 50%
15:00 +10°C° 0 mm 5 mps 742 mmHg 50%
16:00 +11°C° 0 mm 4 mps 742 mmHg 50%
17:00 +10°C° 0 mm 3 mps 742 mmHg 58%
18:00 +8°C° 0 mm 2 mps 743 mmHg 65%
19:00 +7°C° 0 mm 1 mps 743 mmHg 73%
20:00 +7°C° 0 mm 1 mps 743 mmHg 74%
21:00 +6°C° 0 mm 1 mps 743 mmHg 76%
22:00 +5°C° 0 mm 1 mps 743 mmHg 77%
23:00 +5°C° 0 mm 1 mps 744 mmHg 79%

Tomorrow, 9 May, Sunday

Time Temperature Precipitation Wind Pressure Humidity
00:00 +5°C° 0 mm 1 mps 744 mmHg 81%
01:00 +4°C° 0 mm 2 mps 744 mmHg 82%
02:00 +3°C° 0 mm 2 mps 744 mmHg 82%
03:00 +3°C° 0 mm 2 mps 744 mmHg 81%
04:00 +3°C° 0 mm 2 mps 743 mmHg 80%
05:00 +5°C° 0 mm 2 mps 743 mmHg 75%
06:00 +7°C° 0 mm 3 mps 743 mmHg 69%
07:00 +9°C° 0 mm 3 mps 743 mmHg 64%
08:00 +11°C° 0 mm 3 mps 743 mmHg 60%
09:00 +13°C° 0 mm 4 mps 743 mmHg 55%
10:00 +15°C° 0 mm 4 mps 743 mmHg 51%
11:00 +17°C° 0 mm 4 mps 743 mmHg 49%
12:00 +18°C° 0 mm 3 mps 743 mmHg 48%
13:00 +19°C° 0 mm 2 mps 743 mmHg 46%
14:00 +19°C° 0 mm 2 mps 742 mmHg 47%
15:00 +19°C° 0 mm 2 mps 742 mmHg 48%
16:00 +20°C° 0 mm 2 mps 741 mmHg 49%
17:00 +18°C° 0 mm 2 mps 741 mmHg 57%
18:00 +16°C° 0 mm 2 mps 741 mmHg 65%
19:00 +13°C° 0 mm 3 mps 741 mmHg 73%
20:00 +13°C° 0 mm 2 mps 741 mmHg 74%
21:00 +10°C° 0 mm 2 mps 741 mmHg 76%
22:00 +9°C° 0 mm 2 mps 741 mmHg 78%
23:00 +9°C° 0 mm 2 mps 741 mmHg 79%

Day after tomorrow, 10 May, Monday

Time Temperature Precipitation Wind Pressure Humidity
00:00 +8°C° 0 mm 2 mps 741 mmHg 81%
01:00 +8°C° 0 mm 2 mps 741 mmHg 83%
02:00 +7°C° 0 mm 2 mps 740 mmHg 84%
03:00 +7°C° 0 mm 2 mps 740 mmHg 85%
04:00 +6°C° 0 mm 2 mps 740 mmHg 87%
05:00 +8°C° 0 mm 2 mps 740 mmHg 81%
06:00 +10°C° 0 mm 3 mps 740 mmHg 76%
07:00 +12°C° 0 mm 3 mps 740 mmHg 71%
08:00 +14°C° 0 mm 3 mps 740 mmHg 66%
09:00 +17°C° 0 mm 4 mps 740 mmHg 61%
10:00 +19°C° 0 mm 4 mps 740 mmHg 55%
11:00 +21°C° 0 mm 4 mps 740 mmHg 53%
12:00 +22°C° 0 mm 4 mps 739 mmHg 51%
13:00 +24°C° 0 mm 3 mps 739 mmHg 49%
14:00 +24°C° 0 mm 3 mps 739 mmHg 52%
15:00 +24°C° 0 mm 3 mps 739 mmHg 54%
16:00 +24°C° 0 mm 3 mps 739 mmHg 56%
17:00 +21°C° 0 mm 3 mps 739 mmHg 64%
18:00 +19°C° 0 mm 3 mps 739 mmHg 71%
19:00 +17°C° 0 mm 3 mps 739 mmHg 78%
20:00 +16°C° 0 mm 2 mps 739 mmHg 80%
21:00 +15°C° 0 mm 2 mps 739 mmHg 81%
22:00 +14°C° 0 mm 2 mps 739 mmHg 83%
23:00 +13°C° 0 mm 2 mps 739 mmHg 85%

11 May, Tuesday

Time Temperature Precipitation Wind Pressure Humidity
00:00 +13°C° 0 mm 2 mps 739 mmHg 87%
01:00 +12°C° 0 mm 2 mps 739 mmHg 88%
02:00 +12°C° 0 mm 2 mps 738 mmHg 89%
03:00 +10°C° 0 mm 2 mps 738 mmHg 90%
04:00 +10°C° 0 mm 2 mps 738 mmHg 90%
05:00 +12°C° 0 mm 3 mps 738 mmHg 85%
06:00 +14°C° 0 mm 3 mps 738 mmHg 79%
07:00 +17°C° 0 mm 3 mps 738 mmHg 74%
08:00 +18°C° 0 mm 3 mps 738 mmHg 69%
09:00 +20°C° 0 mm 4 mps 738 mmHg 63%
10:00 +22°C° 0 mm 4 mps 738 mmHg 58%
11:00 +23°C° 0 mm 4 mps 738 mmHg 56%
12:00 +25°C° 0 mm 4 mps 738 mmHg 53%
13:00 +26°C° 0 mm 4 mps 737 mmHg 51%
14:00 +26°C° 0 mm 5 mps 737 mmHg 54%
15:00 +26°C° 0 mm 5 mps 737 mmHg 58%
16:00 +25°C° 0 mm 5 mps 737 mmHg 61%
17:00 +22°C° 0 mm 5 mps 736 mmHg 67%
18:00 +20°C° 0 mm 5 mps 736 mmHg 72%
19:00 +17°C° 0 mm 5 mps 736 mmHg 78%
20:00 +16°C° 0 mm 5 mps 736 mmHg 81%
21:00 +15°C° 0 mm 4 mps 736 mmHg 85%
22:00 +14°C° 0 mm 4 mps 736 mmHg 88%
23:00 +13°C° 0 mm 3 mps 735 mmHg 89%

12 May, Wednesday

Time Temperature Precipitation Wind Pressure Humidity
00:00 +12°C° 0 mm 3 mps 735 mmHg 91%
01:00 +12°C° 0 mm 3 mps 735 mmHg 92%
02:00 +11°C° 0 mm 3 mps 735 mmHg 92%
03:00 +11°C° 0 mm 3 mps 734 mmHg 93%
04:00 +10°C° 0 mm 3 mps 734 mmHg 93%
05:00 +12°C° 0 mm 4 mps 734 mmHg 89%
06:00 +13°C° 0 mm 5 mps 734 mmHg 84%
07:00 +15°C° 0 mm 5 mps 734 mmHg 79%
08:00 +17°C° 0 mm 6 mps 734 mmHg 73%
09:00 +18°C° 0 mm 7 mps 733 mmHg 67%
10:00 +21°C° 0 mm 7 mps 733 mmHg 61%
11:00 +21°C° 0 mm 8 mps 733 mmHg 61%
12:00 +22°C° 0 mm 8 mps 733 mmHg 60%
13:00 +22°C° 0 mm 8 mps 733 mmHg 59%
14:00 +22°C° 0 mm 8 mps 732 mmHg 63%
15:00 +21°C° 0 mm 9 mps 732 mmHg 67%
16:00 +21°C° 0 mm 9 mps 732 mmHg 71%
17:00 +18°C° 0 mm 9 mps 732 mmHg 70%
18:00 +17°C° 0 mm 9 mps 732 mmHg 69%
19:00 +15°C° 0 mm 9 mps 732 mmHg 69%
20:00 +13°C° 0 mm 8 mps 732 mmHg 70%
21:00 +12°C° 0 mm 8 mps 732 mmHg 71%
22:00 +12°C° 0 mm 8 mps 732 mmHg 72%
23:00 +11°C° 0 mm 7 mps 732 mmHg 75%

13 May, Thursday

Time Temperature Precipitation Wind Pressure Humidity
00:00 +10°C° 0 mm 7 mps 731 mmHg 78%
01:00 +9°C° 0 mm 7 mps 731 mmHg 81%
02:00 +9°C° 0 mm 7 mps 731 mmHg 81%
03:00 +9°C° 0 mm 7 mps 731 mmHg 81%
04:00 +9°C° 0 mm 8 mps 731 mmHg 80%
05:00 +9°C° 0.3 mm 8 mps 731 mmHg 83%
06:00 +9°C° 0.3 mm 8 mps 731 mmHg 85%
07:00 +9°C° 0.3 mm 8 mps 731 mmHg 87%
08:00 +9°C° 0 mm 8 mps 731 mmHg 85%
09:00 +10°C° 0 mm 8 mps 731 mmHg 83%
10:00 +10°C° 0 mm 8 mps 731 mmHg 82%
11:00 +10°C° 0.1 mm 8 mps 731 mmHg 83%
12:00 +10°C° 0.1 mm 8 mps 731 mmHg 85%
13:00 +9°C° 0.1 mm 8 mps 731 mmHg 87%
14:00 +9°C° 0.1 mm 7 mps 731 mmHg 89%
15:00 +9°C° 0.1 mm 6 mps 731 mmHg 90%
16:00 +9°C° 0.1 mm 5 mps 731 mmHg 92%
17:00 +10°C° 0.1 mm 4 mps 731 mmHg 94%
18:00 +10°C° 0.1 mm 4 mps 731 mmHg 95%
19:00 +10°C° 0.1 mm 3 mps 731 mmHg 96%
20:00 +10°C° 0.1 mm 2 mps 731 mmHg 96%
21:00 +11°C° 0.1 mm 1 mps 731 mmHg 96%
22:00 +11°C° 0.1 mm 1 mps 732 mmHg 96%
23:00 +11°C° 0 mm 1 mps 732 mmHg 95%
Show more

We Need Your Consent

Meteoprog and our Service Providers may store and access personal data such as cookies, device identifiers or other similar technologies on your device and process such data to personalise content and ads, as well as provide social media features and to analyse the traffic.

  • Store and/or access information on your device

    Cookies, device identifiers or other information can be stored or accessed on your device for the purposes indicated above.

  • Personalised ads and content, ad and content measurement, audience insights, and products development

    Ads and content can be personalised based on a profile. More data can be added to better personalise ads and content. Ad and content performance can be measured. Insights about the audience who saw the ads and content can be derived. Such data can be used to develop or improve user’s experience, systems and software.

By clicking ‘I Agree’ you will allow the use of indicated cookies, device identifiers, web beacons or other similar technologies. Your settings can be changed in the browser on your device.

For certain purposes, legitimate interests may be relied on, rather than consent. You can read more about this in our Privacy and Cookie Policy.